Location: Moscow
(38.8570°N, 84.2291°W)
Time: 12:55:24
(UTC+00:00)

USA 215 - Visible Passes

Search period start: 14 February 2026 00:00
Search period end: 24 February 2026 00:00
Orbit: 1098 x 1109 km, 123.0° (Epoch: 10 January)

Date Brightness Start Highest point End Pass type
(mag) Time Alt. Az. Time Alt. Az. Time Alt. Az.
14 Feb 5.0 09:20:29 10° ENE 09:25:02 20° NNE 09:26:29 19° N visible
14 Feb 4.2 11:00:47 10° E 11:06:52 43° NNE 11:12:59 10° NW visible
15 Feb 5.3 08:39:03 10° NE 08:42:06 17° NNE 08:42:06 17° NNE visible
15 Feb 4.8 10:19:15 10° ENE 10:24:36 28° NNE 10:29:27 12° NNW visible
15 Feb 3.5 12:00:22 10° SE 12:06:55 74° NE 12:13:29 10° NW visible
16 Feb 5.8 07:57:01 10° NNE 07:57:41 12° NNE 07:57:41 12° NNE visible
16 Feb 5.1 09:37:59 10° ENE 09:42:32 20° NNE 09:45:02 16° NNW visible
16 Feb 4.2 11:18:17 10° E 11:24:23 43° NNE 11:30:30 10° NW visible
17 Feb 5.2 08:56:33 10° NE 09:00:37 18° N 09:00:37 18° N visible
17 Feb 4.8 10:36:45 10° ENE 10:42:07 28° NNE 10:47:29 10° NNW visible
18 Feb 5.5 08:14:32 10° NNE 08:16:11 15° NNE 08:16:11 15° NNE visible
18 Feb 5.1 09:55:29 10° ENE 10:00:03 20° NNE 10:03:32 14° NNW visible
18 Feb 4.2 11:35:48 10° E 11:41:54 43° NNE 11:48:02 10° NW visible
19 Feb 5.1 09:14:03 10° NE 09:18:07 18° N 09:19:06 17° N visible
19 Feb 4.8 10:54:15 10° ENE 10:59:37 28° NNE 11:04:59 10° NNW visible
20 Feb 5.4 08:32:02 10° NNE 08:34:38 17° N 08:34:38 17° N visible
20 Feb 5.1 10:12:59 10° ENE 10:17:34 20° NNE 10:22:00 10° NNW visible
21 Feb 5.7 07:49:25 10° NNE 07:50:11 13° NNE 07:50:11 13° NNE visible
21 Feb 5.1 09:31:34 10° NE 09:35:38 18° N 09:37:32 16° NNW visible
21 Feb 4.8 11:11:46 10° ENE 11:17:09 28° NNE 11:22:31 10° NNW visible
22 Feb 5.2 08:49:34 10° NNE 08:53:04 18° N 08:53:04 18° N visible
22 Feb 5.1 10:30:30 10° ENE 10:35:04 21° NNE 10:39:39 10° NNW visible
23 Feb 5.5 08:06:56 10° NNE 08:08:36 16° NNE 08:08:36 16° NNE visible
23 Feb 5.2 09:49:04 10° NE 09:53:09 18° N 09:55:57 14° NNW visible
23 Feb 4.8 11:29:16 10° E 11:34:39 28° NNE 11:40:03 10° NNW visible
